Regional Weather Roundup
Issued by NWS Cleveland, OH

Home | Current Version | Previous Version | Text Only | Print | Product List | Glossary Off
Versions: 1 2 3 4 5 6 7 8 9 10 11 12 13 14 15 16 17 18 19 20 21 22 23 24 25 26 27 28 29 30 31 32 33 34 35 36 37 38 39 40 41 42 43 44 45 46 47 48 49 50

000
ASUS41 KCLE 270210
RWRCLE
OHIO REGIONAL WEATHER ROUNDUP
NATIONAL WEATHER SERVICE CLEVELAND, OH
1000 PM EDT MON JUN 26 2017

NOTE: "FAIR" INDICATES FEW OR NO CLOUDS BELOW 12,000 FEET WITH NO
SIGNIFICANT WEATHER AND/OR OBSTRUCTIONS TO VISIBILITY.

OHZ001>008-015>018-024>027-034-035-043-044-270300-
   NORTHWEST OHIO

CITY           SKY/WX    TMP DP  RH WIND       PRES   REMARKS
DEFIANCE       CLOUDY    57  51  80 SW5       30.01S
FINDLAY        CLOUDY    56  50  80 SW6       30.01F
TOLEDO EXPRESS PTCLDY    58  50  75 SW8       29.99S
TOLEDO EXEC    LGT RAIN  60  52  74 SW12      30.00S
LIMA           CLOUDY    57  51  80 S6        30.03F
$$

OHZ009>014-019>023-028>033-038-089-270300-
   NORTHEAST OHIO

CITY           SKY/WX    TMP DP  RH WIND       PRES   REMARKS
CLE-HOPKINS    LGT RAIN  57  52  83 SW7       30.04R
CLE-LAKEFRONT  LGT RAIN  61  49  64 SW21G29   30.02R
CUY CO. ARPT   CLOUDY    64  50  59 SW17G29   30.01R
LORAIN-ELYRIA  CLOUDY    55  47  74 W5        30.03S
ASHTABULA      CLEAR     59  49  69 SW3       30.00S
AKRON-CANTON   PTCLDY    60  49  66 SW6       30.01S
WOOSTER        PTCLDY    56  48  74 NW9       30.04S
MANSFIELD      CLOUDY    56  49  77 W5        30.05R
YOUNGSTOWN     PTCLDY    54  50  86 CALM      30.00F
$$

OHZ042-051>053-060>062-070>072-077>081-270300-
  SOUTHWEST OHIO

CITY           SKY/WX    TMP DP  RH WIND       PRES   REMARKS
CINC-COVINGTON CLOUDY    66  50  56 W7        30.06S
CINC-LUNKEN    CLOUDY    66  51  58 SW10      30.06S
HAMILTON       CLOUDY    64  52  64 W7        30.06S
DAYTON         PTCLDY    58  48  69 N8        30.08R
WRIGHT-PAT AFB PTCLDY    63  50  63 N16G24    30.05R
DAYTON GENERAL PTCLDY    65  47  52 SW7       30.04S
WILMINGTON     CLOUDY    62  53  72 SW6       30.05S
$$

OHZ036-037-039>041-045>050-054>059-063>069-073>076-082>088-270300-
  CENTRAL AND SOUTHEAST OHIO

CITY           SKY/WX    TMP DP  RH WIND       PRES   REMARKS
COLUMBUS       PTCLDY    61  55  81 S3        30.02F
OSU AIRPORT    PTCLDY    58  55  90 S6        30.02F
BOLTON FIELD   PTCLDY    57  53  85 SW5       30.04F
RICKENBACK AFB PTCLDY    59  53  82 S5        30.03F
NEWARK         MOCLDY    58  52  80 SW8       30.03F
MARION         MOCLDY    58  49  72 NW6       30.05R
LANCASTER      MOCLDY    59  55  87 CALM      30.05F
ZANESVILLE     LGT RAIN  63  50  62 W20G31    30.07R
NEW PHILLY     NOT AVBL
$$



USA.gov is the U.S. government's official web portal to all federal, state and local government web resources and services.